DW4879 Weather Reports


time (UTC)temp
F
wind
direction
speed
knots
gust
knots
rain 1hr
in
rain 24hr
in
rain mn
in
humidity
%
barometer
mb
20260506132557 43 127 1.7 5.2 0.00 0.00 0.00 70 1016.6
20260506132001 43 113 2.6 5.2 0.00 0.00 0.00 70 1016.4
20260506131558 43 112 1.7 3.5 0.00 0.00 0.00 71 1016.5
20260506131103 43 110 1.7 2.6 0.00 0.00 0.00 71 1016.5
20260506130506 42 119 0.9 2.6 0.00 0.00 0.00 72 1016.3
20260506130017 42 113 1.7 2.6 0.00 0.00 0.00 72 1016.3
20260506125504 42 119 1.7 2.6 0.00 0.00 0.00 72 1016.2
20260506125011 42 119 0.9 2.6 0.00 0.00 0.00 73 1016.2
20260506124501 42 119 0.9 2.6 0.00 0.00 0.00 73 1016.2
20260506124007 41 116 0.9 2.6 0.00 0.00 0.00 73 1016.1
20260506123601 41 102 0.9 2.6 0.00 0.00 0.00 73 1016.1
20260506123052 41 126 0.9 1.7 0.00 0.00 0.00 74 1016.0
20260506122600 41 126 0.9 2.6 0.00 0.00 0.00 74 1015.9
20260506122050 41 126 0.9 2.6 0.00 0.00 0.00 74 1015.9
20260506121539 41 109 1.7 2.6 0.00 0.00 0.00 74 1015.9
20260506121046 41 109 0.9 1.7 0.00 0.00 0.00 74 1015.8
20260506120552 41 109 0.9 1.7 0.00 0.00 0.00 73 1015.8
20260506120115 41 109 0.0 1.7 0.00 0.00 0.00 73 1015.8
20260506115553 41 109 0.0 0.0 0.00 0.00 0.00 73 1015.9
20260506115059 41 109 0.0 0.0 0.00 0.00 0.00 73 1015.8
20260506114549 41 109 0.0 1.7 0.00 0.00 0.00 74 1015.8
20260506114038 40 109 0.0 1.7 0.00 0.00 0.00 74 1015.8
20260506113545 40 109 0.0 1.7 0.00 0.00 0.00 75 1015.8
20260506113036 40 109 0.9 1.7 0.00 0.00 0.00 75 1015.8
20260506112540 40 109 0.9 1.7 0.00 0.00 0.00 75 1015.7
20260506112046 40 109 1.7 1.7 0.00 0.00 0.00 74 1015.7
20260506111538 40 109 0.9 1.7 0.00 0.00 0.00 74 1015.6
20260506111048 40 109 0.9 2.6 0.00 0.00 0.00 74 1015.5
20260506110551 40 109 1.7 2.6 0.00 0.00 0.00 74 1015.4
20260506110100 40 109 1.7 2.6 0.00 0.00 0.00 74 1015.4
20260506105551 40 109 1.7 2.6 0.00 0.00 0.00 74 1015.4
20260506105102 40 109 1.7 2.6 0.00 0.00 0.00 72 1015.4
20260506104604 40 111 1.7 2.6 0.00 0.00 0.00 72 1015.3
20260506104014 41 126 1.7 2.6 0.00 0.00 0.00 72 1015.4
20260506103604 41 126 0.9 3.5 0.00 0.00 0.00 73 1015.3
20260506103006 41 126 1.7 3.5 0.00 0.00 0.00 73 1015.3
20260506102602 41 129 1.7 3.5 0.00 0.00 0.00 73 1015.3
20260506102006 41 132 1.7 3.5 0.00 0.00 0.00 73 1015.3
20260506101601 41 131 1.7 3.5 0.00 0.00 0.00 73 1015.3
20260506101002 41 111 1.7 3.5 0.00 0.00 0.00 73 1015.3
20260506100513 41 109 1.7 2.6 0.00 0.00 0.00 73 1015.3
20260506100105 41 112 1.7 3.5 0.00 0.00 0.00 73 1015.3
20260506095503 41 115 2.6 3.5 0.00 0.00 0.00 73 1015.2
20260506095057 41 126 1.7 3.5 0.00 0.00 0.00 72 1015.3
20260506094615 41 110 1.7 2.6 0.00 0.00 0.00 72 1015.4
20260506094100 42 134 1.7 2.6 0.00 0.00 0.00 72 1015.3
20260506093602 42 129 0.9 1.7 0.00 0.00 0.00 71 1015.3
20260506093004 42 159 0.0 1.7 0.00 0.00 0.00 70 1015.3
20260506092559 42 159 0.9 1.7 0.00 0.00 0.00 70 1015.4
20260506092105 42 159 0.9 1.7 0.00 0.00 0.00 70 1015.3
20260506091556 43 159 0.0 1.7 0.00 0.00 0.00 69 1015.4
20260506091048 43 159 0.9 1.7 0.00 0.00 0.00 69 1015.3
20260506090554 43 159 0.9 1.7 0.00 0.00 0.00 69 1015.4
20260506085503 43 155 1.7 2.6 0.00 0.00 0.00 67 1015.4
20260506085102 44 144 1.7 2.6 0.00 0.00 0.00 67 1015.4
20260506084605 44 161 1.7 2.6 0.00 0.00 0.00 66 1015.3
20260506084056 44 167 0.9 2.6 0.00 0.00 0.00 66 1015.3
20260506083550 44 153 1.7 2.6 0.00 0.00 0.00 65 1015.3
20260506083100 44 153 0.9 2.6 0.00 0.00 0.00 65 1015.3
20260506082602 45 153 1.7 2.6 0.00 0.00 0.00 65 1015.3
20260506082103 45 149 0.9 2.6 0.00 0.00 0.00 64 1015.4
20260506081554 45 153 0.9 1.7 0.00 0.00 0.00 64 1015.4
20260506081046 45 153 0.9 1.7 0.00 0.00 0.00 63 1015.4
20260506080552 45 157 0.9 2.6 0.00 0.00 0.00 63 1015.4
20260506080109 45 164 0.9 2.6 0.00 0.00 0.00 63 1015.5
20260506073103 46 207 3.5 5.2 0.00 0.00 0.00 61 1015.6
20260506072557 46 190 2.6 5.2 0.00 0.00 0.00 61 1015.7
20260506072104 46 183 1.7 5.2 0.00 0.00 0.00 61 1015.7
20260506071505 46 195 3.5 5.2 0.00 0.00 0.00 61 1015.6
20260506071009 47 192 2.6 5.2 0.00 0.00 0.00 61 1015.6
20260506070516 47 199 0.9 3.5 0.00 0.00 0.00 60 1015.6
20260506062059 48 200 1.7 5.2 0.00 0.00 0.00 58 1015.5
20260506061502 48 182 1.7 5.2 0.00 0.00 0.00 58 1015.4
20260506061058 48 188 2.6 5.2 0.00 0.00 0.00 58 1015.3
20260506060604 48 208 0.0 5.2 0.00 0.00 0.00 58 1015.4
20260506051003 49 204 2.6 5.2 0.00 0.00 0.00 60 1015.2
20260506050512 49 180 2.6 5.2 0.00 0.00 0.00 60 1015.2
20260506050109 49 122 0.9 2.6 0.00 0.00 0.00 60 1015.1
20260506045056 49 113 0.9 2.6 0.00 0.00 0.00 59 1014.8
20260506044603 49 134 0.9 2.6 0.00 0.00 0.00 58 1014.9
20260506044005 49 159 0.0 5.2 0.00 0.00 0.00 58 1014.9
20260506043601 49 149 2.6 5.2 0.00 0.00 0.00 58 1014.9
20260506043002 49 140 2.6 5.2 0.00 0.00 0.00 58 1014.8
20260506042557 49 137 0.9 3.5 0.00 0.00 0.00 57 1014.8
20260506042104 49 184 1.7 3.5 0.00 0.00 0.00 57 1014.7
20260506041556 49 218 0.9 5.2 0.00 0.00 0.00 57 1014.8
20260506041102 49 232 1.7 5.2 0.00 0.00 0.00 57 1014.7
20260506040504 49 216 0.9 4.3 0.00 0.00 0.00 57 1014.6
20260506040010 49 244 1.7 4.3 0.00 0.00 0.00 57 1014.6
20260506035606 50 269 1.7 6.1 0.00 0.00 0.00 58 1014.6
20260506035004 50 230 0.9 7.8 0.00 0.00 0.00 59 1014.5
20260506034511 50 268 2.6 12.2 0.00 0.00 0.00 59 1014.4
20260506034003 50 179 6.1 11.3 0.00 0.00 0.00 59 1014.2
20260506033509 49 159 6.1 12.2 0.00 0.00 0.00 59 1013.8
20260506033121 49 172 6.1 10.4 0.00 0.00 0.00 59 1013.6
20260506032506 49 172 7.8 13.9 0.00 0.00 0.00 59 1013.5
20260506032101 49 187 7.8 13.9 0.00 0.00 0.00 60 1013.4
20260506031553 49 178 8.7 13.9 0.00 0.00 0.00 60 1013.4
20260506031102 50 192 7.0 11.3 0.00 0.00 0.00 60 1013.3
20260506030606 50 209 6.1 10.4 0.00 0.00 0.00 59 1013.1
20260506030008 50 201 7.0 11.3 0.00 0.00 0.00 56 1012.9
20260506025605 50 167 5.2 10.4 0.00 0.00 0.00 54 1012.9
20260506025007 50 163 6.1 18.2 0.00 0.00 0.00 54 1013.0
20260506024616 51 196 7.0 18.2 0.00 0.00 0.00 54 1012.9
20260506024005 51 179 9.6 18.2 0.00 0.00 0.00 50 1012.6
20260506023600 52 176 12.2 18.2 0.00 0.00 0.00 48 1012.4
20260506023107 52 179 10.4 15.6 0.00 0.00 0.00 48 1012.8
20260506022557 52 221 7.8 18.2 0.00 0.00 0.00 45 1012.8
20260506022046 50 230 8.7 17.4 0.00 0.00 0.00 49 1013.0
20260506021559 49 199 7.0 16.5 0.00 0.00 0.00 63 1013.1
20260506021104 49 159 9.6 17.4 0.00 0.00 0.00 66 1013.0
20260506020505 49 180 11.3 18.2 0.00 0.00 0.00 66 1012.9
20260506020012 50 198 10.4 14.8 0.00 0.00 0.00 62 1013.0
20260506015503 51 209 7.8 13.9 0.00 0.00 0.00 59 1013.1
20260506015010 51 227 6.1 13.0 0.00 0.00 0.00 56 1013.1
20260506014603 51 167 5.2 11.3 0.00 0.00 0.00 54 1013.2
20260506014004 52 240 7.0 16.5 0.00 0.00 0.00 53 1013.3
20260506013600 52 202 6.1 16.5 0.00 0.00 0.00 52 1013.1
20260506013002 52 198 8.7 17.4 0.00 0.00 0.00 54 1013.1
20260506012509 52 196 8.7 18.2 0.00 0.00 0.00 54 1012.9
20260506012104 52 194 8.7 15.6 0.00 0.00 0.00 54 1012.9
20260506011521 53 188 7.8 20.0 0.00 0.00 0.00 53 1012.8
20260506011103 53 178 9.6 20.0 0.00 0.00 0.00 52 1012.7
20260506010504 54 200 13.0 20.0 0.00 0.00 0.00 50 1012.6
20260506010120 54 164 8.7 17.4 0.00 0.00 0.00 52 1012.5
20260506005551 54 162 10.4 18.2 0.00 0.00 0.00 53 1012.3
20260506005101 54 162 10.4 18.2 0.00 0.00 0.00 53 1012.3
20260506004549 54 160 11.3 18.2 0.00 0.00 0.00 51 1012.1
20260506004055 54 182 7.8 16.5 0.00 0.00 0.00 48 1012.1
20260506003601 54 173 9.6 16.5 0.00 0.00 0.00 48 1012.0
20260506003004 54 194 7.8 14.8 0.00 0.00 0.00 45 1011.8
20260506002559 54 173 8.7 14.8 0.00 0.00 0.00 47 1011.9
20260506002002 54 210 9.6 21.7 0.00 0.00 0.00 50 1011.9
20260506001601 55 163 10.4 21.7 0.00 0.00 0.00 52 1011.7
20260506001104 55 206 7.0 15.6 0.00 0.00 0.00 41 1011.8
20260506000558 55 160 6.1 14.8 0.00 0.00 0.00 45 1011.8
20260506000054 55 178 7.8 17.4 0.00 0.00 0.00 45 1011.8
20260505235552 56 194 8.7 17.4 0.00 0.00 0.00 45 1011.9
20260505235059 56 205 8.7 20.0 0.00 0.00 0.00 44 1011.9
20260505234502 57 212 11.3 20.0 0.00 0.00 0.00 42 1011.7
20260505234012 58 188 8.7 18.2 0.00 0.00 0.00 42 1011.7
20260505233604 59 200 8.7 17.4 0.00 0.00 0.00 39 1011.8
20260505233051 60 203 9.6 17.4 0.00 0.00 0.00 39 1011.6
20260505232542 60 223 10.4 19.1 0.00 0.00 0.00 36 1011.4
20260505232050 61 178 7.8 19.1 0.00 0.00 0.00 35 1011.5
20260505231556 61 152 7.0 19.1 0.00 0.00 0.00 33 1011.4
20260505231103 62 148 8.7 15.6 0.00 0.00 0.00 33 1011.3
20260505230555 63 188 9.6 14.8 0.00 0.00 0.00 31 1011.3
20260505225553 63 219 2.6 13.0 0.00 0.00 0.00 28 1011.2
20260505225100 63 222 3.5 10.4 0.00 0.00 0.00 28 1011.1
20260505224605 63 222 4.3 9.6 0.00 0.00 0.00 27 1011.3
20260505224007 63 280 4.3 11.3 0.00 0.00 0.00 27 1011.2
20260505223603 64 225 1.7 11.3 0.00 0.00 0.00 28 1011.3
20260505223015 64 167 4.3 8.7 0.00 0.00 0.00 29 1011.5
20260505222605 64 182 4.3 8.7 0.00 0.00 0.00 30 1011.7
20260505222005 64 272 2.6 9.6 0.00 0.00 0.00 30 1011.7
20260505221605 64 221 3.5 9.6 0.00 0.00 0.00 31 1011.8
20260505221104 64 236 6.1 10.4 0.00 0.00 0.00 30 1011.7
20260505220505 65 198 4.3 9.6 0.00 0.00 0.00 30 1011.8
20260505220056 65 187 1.7 7.8 0.00 0.00 0.00 30 1011.9
20260505215554 65 244 4.3 13.9 0.00 0.00 0.00 31 1011.9
20260505215100 65 250 5.2 14.8 0.00 0.00 0.00 30 1012.0
20260505214508 66 232 7.0 13.9 0.00 0.00 0.00 30 1012.0
20260505214008 66 219 6.1 12.2 0.00 0.00 0.00 30 1012.1
20260505213512 66 185 5.2 13.9 0.00 0.00 0.00 30 1012.0
20260505213003 65 188 8.7 13.9 0.00 0.00 0.00 29 1012.1
20260505212557 66 223 4.3 11.3 0.00 0.00 0.00 29 1012.2
20260505212001 66 180 7.8 11.3 0.00 0.00 0.00 28 1012.3
20260505211556 67 264 2.6 9.6 0.00 0.00 0.00 28 1012.4
20260505211103 67 196 5.2 10.4 0.00 0.00 0.00 27 1012.3
20260505210553 67 209 7.0 10.4 0.00 0.00 0.00 28 1012.5
20260505210049 67 217 3.5 15.6 0.00 0.00 0.00 25 1012.5
20260505205551 67 311 4.3 15.6 0.00 0.00 0.00 26 1012.6
20260505205057 66 281 7.8 14.8 0.00 0.00 0.00 25 1012.6
20260505204612 67 309 3.5 12.2 0.00 0.00 0.00 25 1012.7
20260505204056 68 311 8.7 12.2 0.00 0.00 0.00 24 1012.7
20260505203603 69 220 5.2 10.4 0.00 0.00 0.00 24 1012.8
20260505203005 67 256 5.2 9.6 0.00 0.00 0.00 26 1012.7
20260505202512 66 205 3.5 10.4 0.00 0.00 0.00 26 1012.9
20260505202003 66 277 2.6 15.6 0.00 0.00 0.00 27 1013.0
20260505201512 65 294 2.6 13.9 0.00 0.00 0.00 27 1013.1
20260505201001 64 103 6.1 13.9 0.00 0.00 0.00 28 1013.0
20260505200507 65 208 6.1 12.2 0.00 0.00 0.00 27 1013.2
20260505195502 66 296 3.5 9.6 0.00 0.00 0.00 26 1013.4
20260505195010 66 230 2.6 9.6 0.00 0.00 0.00 26 1013.5
20260505194501 66 123 1.7 9.6 0.00 0.00 0.00 26 1013.5
20260505194013 66 207 1.7 11.3 0.00 0.00 0.00 24 1013.6
20260505193607 67 196 6.1 14.8 0.00 0.00 0.00 24 1013.7
20260505193005 67 188 4.3 14.8 0.00 0.00 0.00 25 1013.7
20260505192600 66 250 1.7 14.8 0.00 0.00 0.00 24 1013.7
20260505192103 68 173 4.3 14.8 0.00 0.00 0.00 23 1013.7
20260505191506 68 212 6.1 10.4 0.00 0.00 0.00 23 1013.7
20260505191103 67 213 2.6 10.4 0.00 0.00 0.00 23 1013.8
20260505190506 66 169 0.9 13.9 0.00 0.00 0.00 23 1013.8
20260505190011 66 166 1.7 15.6 0.00 0.00 0.00 23 1013.8
20260505185518 66 187 9.6 21.7 0.00 0.00 0.00 24 1013.8
20260505185027 64 211 4.3 21.7 0.00 0.00 0.00 24 1013.8
20260505184532 63 284 1.7 8.7 0.00 0.00 0.00 24 1013.9
20260505184041 64 309 1.7 8.7 0.00 0.00 0.00 24 1014.0
20260505183550 64 277 3.5 10.4 0.00 0.00 0.00 24 1014.1
20260505183047 63 298 2.6 10.4 0.00 0.00 0.00 24 1014.1
20260505182543 63 303 5.2 8.7 0.00 0.00 0.00 25 1014.1
20260505182049 63 220 0.9 6.1 0.00 0.00 0.00 24 1014.1
20260505181600 62 144 2.6 10.4 0.00 0.00 0.00 24 1014.0
20260505181103 61 294 1.7 11.3 0.00 0.00 0.00 25 1014.2
20260505180505 61 273 2.6 10.4 0.00 0.00 0.00 25 1014.2
20260505180027 61 282 5.2 11.3 0.00 0.00 0.00 25 1014.2
20260505175534 61 254 7.0 11.3 0.00 0.00 0.00 25 1014.3
20260505175038 61 285 1.7 11.3 0.00 0.00 0.00 24 1014.2
20260505174546 62 304 5.2 11.3 0.00 0.00 0.00 24 1014.3
20260505174038 61 300 4.3 11.3 0.00 0.00 0.00 25 1014.1
20260505173545 61 298 5.2 11.3 0.00 0.00 0.00 25 1014.1
20260505173034 61 338 6.1 11.3 0.00 0.00 0.00 25 1014.2
20260505172540 62 275 5.2 12.2 0.00 0.00 0.00 25 1014.3
20260505172046 62 214 4.3 12.2 0.00 0.00 0.00 24 1014.2
20260505171536 62 209 4.3 8.7 0.00 0.00 0.00 24 1014.2
20260505171042 61 218 2.6 8.7 0.00 0.00 0.00 25 1014.1
20260505170547 61 290 2.6 11.3 0.00 0.00 0.00 24 1014.2
20260505170054 60 294 7.0 11.3 0.00 0.00 0.00 25 1014.1
20260505165545 60 299 6.1 10.4 0.00 0.00 0.00 25 1014.0
20260505165051 61 306 6.1 10.4 0.00 0.00 0.00 24 1014.0
20260505164602 61 271 4.3 11.3 0.00 0.00 0.00 24 1014.0
20260505164105 61 311 5.2 9.6 0.00 0.00 0.00 24 1014.0
20260505163508 60 304 4.3 9.6 0.00 0.00 0.00 25 1013.9
20260505163014 59 285 2.6 9.6 0.00 0.00 0.00 25 1013.9
20260505162504 59 346 4.3 13.0 0.00 0.00 0.00 25 1014.1
20260505162012 59 325 2.6 13.0 0.00 0.00 0.00 27 1014.1
20260505161504 59 337 4.3 14.8 0.00 0.00 0.00 26 1014.2
20260505161009 58 296 8.7 14.8 0.00 0.00 0.00 26 1014.4
20260505160601 58 290 4.3 11.3 0.00 0.00 0.00 27 1014.3
20260505153120 55 296 3.5 7.8 0.00 0.00 0.00 32 1014.5
20260505152558 55 267 3.5 7.8 0.00 0.00 0.00 32 1014.6
20260505152106 55 281 5.2 7.8 0.00 0.00 0.00 33 1014.7
20260505151554 55 311 2.6 7.0 0.00 0.00 0.00 32 1014.6
20260505151101 55 306 3.5 7.0 0.00 0.00 0.00 33 1014.6
20260505150553 56 360 4.3 7.8 0.00 0.00 0.00 30 1014.6
20260505140501 52 277 1.7 4.3 0.00 0.00 0.00 39 1014.9
20260505140108 52 284 1.7 6.1 0.00 0.00 0.00 39 1015.0